This is the latest recevied weather packets stored in our database for station/object 9W2IJB-3. If no packets are shown the sender has not sent any weather packets the latest 10 day(s).
| Time | Temp. | Humidity | Pressure | Rain* | Wind** | Luminosity | Snow |
|---|---|---|---|---|---|---|---|
| 1778119156 | 28.33° C | 68% | 1021 hPa | - | - | - | - |
| 1778119094 | 28.33° C | 68% | 1021 hPa | - | - | - | - |
| 1778117928 | 28.33° C | 69% | 1020.9 hPa | - | - | - | - |
| 1778117894 | 28.33° C | 69% | 1020.9 hPa | - | - | - | - |
| 1778116694 | 27.78° C | 71% | 1021 hPa | - | - | - | - |
| 1778115494 | 27.78° C | 73% | 1021 hPa | - | - | - | - |
| 1778114328 | 27.22° C | 74% | 1020.6 hPa | - | - | - | - |
| 1778114294 | 27.22° C | 74% | 1020.6 hPa | - | - | - | - |
| 1778113094 | 26.67° C | 74% | 1020.5 hPa | - | - | - | - |
| 1778111894 | 26.11° C | 74% | 1020.1 hPa | - | - | - | - |
| 1778110733 | 26.11° C | 72% | 1020 hPa | - | - | - | - |
| 1778110694 | 26.11° C | 72% | 1020 hPa | - | - | - | - |
| 1778109494 | 26.11° C | 70% | 1019.9 hPa | - | - | - | - |
| 1778108294 | 25.56° C | 69% | 1019.6 hPa | - | - | - | - |
| 1778107131 | 25.56° C | 72% | 1019.7 hPa | - | - | - | - |
| 1778107094 | 25.56° C | 72% | 1019.7 hPa | - | - | - | - |
| 1778105894 | 25.56° C | 70% | 1019.7 hPa | - | - | - | - |
| 1778104694 | 25.56° C | 70% | 1019.5 hPa | - | - | - | - |
| 1778103531 | 25.56° C | 69% | 1019.3 hPa | - | - | - | - |
| 1778103494 | 25.56° C | 69% | 1019.3 hPa | - | - | - | - |
| 1778102294 | 26.11° C | 71% | 1019.2 hPa | - | - | - | - |
| 1778101094 | 26.11° C | 72% | 1019.1 hPa | - | - | - | - |
| 1778099933 | 26.11° C | 70% | 1019.2 hPa | - | - | - | - |
| 1778099894 | 26.11° C | 70% | 1019.2 hPa | - | - | - | - |
| 1778098693 | 26.11° C | 73% | 1019.2 hPa | - | - | - | - |
* Rain since midnight (hover to see other rain measurements)
** Current wind speed in m/s (hover to see current wind gust speed)